TimeCST,TemperatureF,Dew PointF,Humidity,Sea Level PressureIn,VisibilityMPH,Wind Direction,Wind SpeedMPH,Gust SpeedMPH,PrecipitationIn,Events,Conditions,WindDirDegrees,DateUTC
12:12 AM,60.8,59.0,94,29.83,5.0,SSW,3.5,-,0.04,Rain-Thunderstorm,Light Rain,210,2012-12-17 06:12:00
12:23 AM,60.8,59.0,94,29.82,6.0,SSE,4.6,-,0.06,Rain-Thunderstorm,Rain,160,2012-12-17 06:23:00
12:42 AM,60.8,59.0,94,29.84,4.0,Calm,Calm,-,0.12,Rain,Rain,0,2012-12-17 06:42:00
12:53 AM,60.1,59.0,96,29.83,4.0,South,5.8,-,0.16,Rain-Thunderstorm,Rain,190,2012-12-17 06:53:00
1:32 AM,60.8,59.0,94,29.82,2.5,South,5.8,-,0.19,Rain-Thunderstorm,Heavy Rain,170,2012-12-17 07:32:00
1:43 AM,60.8,59.0,94,29.82,3.0,South,6.9,-,0.24,Rain-Thunderstorm,Rain,170,2012-12-17 07:43:00
1:53 AM,60.1,59.0,96,29.80,3.0,SSE,10.4,-,0.28,Rain,Rain,160,2012-12-17 07:53:00
2:07 AM,60.8,60.8,100,29.80,6.0,SSE,6.9,-,0.03,Rain,Rain,160,2012-12-17 08:07:00
2:46 AM,60.8,60.8,100,29.82,10.0,South,5.8,-,0.05,,Overcast,190,2012-12-17 08:46:00
2:53 AM,61.0,60.1,97,29.81,10.0,SSW,3.5,-,0.05,,Overcast,200,2012-12-17 08:53:00
3:53 AM,61.0,60.1,97,29.81,10.0,South,3.5,-,0.00,,Overcast,190,2012-12-17 09:53:00
4:42 AM,60.8,60.8,100,29.80,10.0,Calm,Calm,-,N/A,,Mostly Cloudy,0,2012-12-17 10:42:00
4:50 AM,60.8,60.8,100,29.81,10.0,Calm,Calm,-,N/A,,Mostly Cloudy,0,2012-12-17 10:50:00
4:53 AM,60.1,60.1,100,29.80,10.0,Calm,Calm,-,N/A,,Mostly Cloudy,0,2012-12-17 10:53:00
5:41 AM,60.8,60.8,100,29.80,10.0,Calm,Calm,-,N/A,,Overcast,0,2012-12-17 11:41:00
5:53 AM,60.1,60.1,100,29.81,10.0,Calm,Calm,-,N/A,,Overcast,0,2012-12-17 11:53:00
6:53 AM,60.1,60.1,100,29.81,10.0,South,4.6,-,N/A,,Overcast,180,2012-12-17 12:53:00
7:53 AM,60.1,60.1,100,29.82,5.0,Calm,Calm,-,N/A,,Overcast,0,2012-12-17 13:53:00
8:34 AM,60.8,60.8,100,29.82,2.0,Calm,Calm,-,N/A,,Overcast,0,2012-12-17 14:34:00
8:41 AM,60.8,60.8,100,29.81,1.2,Calm,Calm,-,N/A,,Overcast,0,2012-12-17 14:41:00
8:53 AM,61.0,61.0,100,29.81,0.5,SSW,3.5,-,N/A,Fog,Fog,210,2012-12-17 14:53:00
9:32 AM,62.6,62.6,100,29.83,1.8,Calm,Calm,-,N/A,,Overcast,0,2012-12-17 15:32:00
9:43 AM,62.6,62.6,100,29.83,3.0,WSW,5.8,-,N/A,,Overcast,240,2012-12-17 15:43:00
9:53 AM,62.1,62.1,100,29.82,6.0,SW,5.8,-,N/A,,Overcast,230,2012-12-17 15:53:00
10:04 AM,62.6,62.6,100,29.83,8.0,SW,6.9,-,N/A,,Overcast,230,2012-12-17 16:04:00
10:14 AM,62.6,60.8,94,29.83,8.0,SW,3.5,-,N/A,,Overcast,220,2012-12-17 16:14:00
10:53 AM,64.0,61.0,90,29.81,10.0,SW,5.8,-,N/A,,Mostly Cloudy,220,2012-12-17 16:53:00
11:06 AM,64.4,60.8,88,29.81,10.0,WSW,3.5,-,N/A,,Scattered Clouds,240,2012-12-17 17:06:00
11:53 AM,64.9,59.0,81,29.79,10.0,WSW,5.8,-,N/A,,Clear,250,2012-12-17 17:53:00
12:53 PM,66.0,57.0,73,29.77,10.0,WSW,8.1,-,N/A,,Clear,250,2012-12-17 18:53:00
1:53 PM,64.9,54.0,68,29.75,10.0,West,8.1,-,N/A,,Clear,260,2012-12-17 19:53:00
2:53 PM,66.9,54.0,63,29.75,10.0,West,6.9,-,N/A,,Clear,260,2012-12-17 20:53:00
3:53 PM,66.9,51.1,57,29.76,10.0,West,6.9,-,N/A,,Clear,260,2012-12-17 21:53:00
6:53 PM,57.0,45.0,64,29.82,10.0,WNW,4.6,-,N/A,,Clear,290,2012-12-18 00:53:00
7:53 PM,53.1,44.1,71,29.84,10.0,West,3.5,-,N/A,,Clear,280,2012-12-18 01:53:00
8:53 PM,50.0,43.0,77,29.86,10.0,Calm,Calm,-,N/A,,Clear,0,2012-12-18 02:53:00
9:53 PM,46.9,44.1,90,29.88,10.0,Calm,Calm,-,N/A,,Clear,0,2012-12-18 03:53:00
10:53 PM,46.9,42.1,83,29.91,10.0,WNW,4.6,-,N/A,,Clear,300,2012-12-18 04:53:00
11:53 PM,46.0,42.1,86,29.92,10.0,WNW,3.5,-,N/A,,Clear,300,2012-12-18 05:53:00